User: anonymous   Login
Location: Unspecified
(0.0000°N, 0.0000°E)
Time: 01:58:56
(UTC+00:00)
Language:

ASUSAT - Orbit

View from above orbital plane
View from above orbital plane
View from above satellite
View from above satellite

Ground track
Ground track

The orbit data is extracted from the following two-line orbital elements,

1 26065U 00004E   23081.16564602  .00000323  00000-0  12753-3 0  9996
2 26065 100.1975 146.2330 0037160 134.4233 225.9999 14.37155052213576
Epoch (UTC): 22 March 2023 03:58:31
Eccentricity: 0.0037160
inclination: 100.1975°
perigee height: 741 km
apogee height: 794 km
right ascension of ascending node: 146.2330°
argument of perigee: 134.4233°
revolutions per day: 14.37155052
mean anomaly at epoch: 225.9999°
orbit number at epoch: 21357

The dashed part of the orbit path shows where the satellite is in the earth's shadow,  

DLR